Terminal Aerodrome Forecast
Issued by NWS

Home | Current Version | Previous Version | Text Only | Print | Product List | Glossary On
Versions: 1 2 3 4 5 6 7 8 9 10 11 12 13 14 15 16 17 18 19 20 21 22 23 24 25 26 27 28 29 30 31 32 33 34 35 36 37 38 39
000
FTUS41 KRNK 030723 AAB
TAFBCB
TAF AMD
KBCB 030723Z 0307/0406 29003KT 5SM -RA BR OVC003
      TEMPO 0308/0312 2SM BR
     FM031400 27005KT P6SM SCT050
     FM040300 00000KT 4SM BR BKN100=

USA.gov is the U.S. government's official web portal to all federal, state and local government web resources and services.